Regional Weather Roundup
Issued by NWS Upton, NY

Current Version | Previous Version | Text Only | Print | Product List | Glossary Off
Versions: 1 2 3 4 5 6 7 8 9 10 11 12 13 14 15 16 17 18 19 20 21 22 23 24 25 26 27 28 29 30 31 32 33 34 35 36 37 38 39 40 41 42 43 44 45 46 47 48 49 50
000 ASUS41 KOKX 012305 RWROKX REGIONAL WEATHER ROUNDUP NATIONAL WEATHER SERVICE NEW YORK NY 600 PM EST SUN MAR 01 2015 NOTE: "FAIR" INDICATES FEW OR NO CLOUDS BELOW 12,000 FEET WITH NO SIGNIFICANT WEATHER AND/OR OBSTRUCTIONS TO VISIBILITY. NYZ071-072-176-178-NJZ106-104-020000- NEW YORK CITY METRO AREA CITY SKY/WX TMP DP RH WIND PRES REMARKS CENTRAL PARK LGT SNOW 27 23 85 CALM 30.36F FOG LAGUARDIA APRT LGT SNOW 26 23 88 SW3 30.34F VSB 3/4 KENNEDY INTL FRZ RAIN 27 22 81 CALM 30.36F NEWARK/LIBERTY FRZ RAIN 25 21 86 CALM 30.34F FOG BRNX BOT. GARD N/A N/A N/A N/A CALM 30.33F TETERBORO LGT SNOW 25 22 88 CALM 30.35F $$ NYZ177-179-078>081-020000- LONG ISLAND NEW YORK CITY SKY/WX TMP DP RH WIND PRES REMARKS FARMINGDALE LGT SNOW 27 24 89 CALM 30.35F FOG ISLIP SNOW 27 24 89 CALM 30.33F VSB 1/2 SHIRLEY LGT SNOW 29 26 89 CALM 30.36F VSB 1 WESTHAMPTON LGT SNOW 29 25 85 CALM 30.37F VSB 3/4 MONTAUK POINT N/A 31 27 85 S5 30.37F WCI 26 $$ NYZ052-065-067-020000- HUDSON VALLEY CITY SKY/WX TMP DP RH WIND PRES REMARKS WHITE PLAINS SNOW 24 21 88 S3 30.31F VSB 1/4 NEWBURGH LGT SNOW 23 21 93 CALM 30.31F VSB 3/4 MONTGOMERY LGT SNOW 23 21 92 CALM 30.30F VSB 3/4 POUGHKEEPSIE LGT SNOW 25 21 85 S3 30.33F VSB 1 ALBANY LGT SNOW 24 18 77 S8 30.28F VSB 1 WCI 15 $$ NJZ001-105-106-008-010-013-015-019>022-104-020000- NEW JERSEY CITY SKY/WX TMP DP RH WIND PRES REMARKS NEWARK/LIBERTY FRZ RAIN 25 21 86 CALM 30.34F FOG TETERBORO LGT SNOW 25 22 88 CALM 30.35F CALDWELL LGT SNOW 23 19 85 CALM 30.34F VSB 1 MORRISTOWN LGT SNOW 23 21 93 CALM 30.34F VSB 1 SOMERVILLE MIX PCPN 25 20 81 CALM 30.32F SUSSEX LGT SNOW 23 19 85 CALM 30.31F FOG ANDOVER N/A 22 20 92 CALM 30.30F TRENTON FRZ RAIN 27 24 89 S7 30.33F FOG WCI 19 MILLVILLE MIX PCPN 31 29 92 MISG 30.34F FOG ATLANTIC CITY FRZ RAIN 32 31 96 SE6 30.32F FOG WCI 26 WRIGHTSTOWN FRZ RAIN 30 29 97 CALM 30.31F FOG TOMS RIVER CLOUDY 32 30 93 CALM 30.34F BELMAR CLOUDY 28 23 80 CALM 30.33F $$ PAZ047>061-062-071-020000- EASTERN PENNSYLVANIA CITY SKY/WX TMP DP RH WIND PRES REMARKS PHILADELPHIA FRZ RAIN 30 27 88 S6 30.35F FOG WCI 24 ALLENTOWN LGT SNOW 25 20 81 CALM 30.32F SCRANTON LGT SNOW 25 21 85 SW5 30.24F WCI 19 $$ CTZ002-004>006-009-010-012-RIZ004-006-007-MAZ004-011-015-020000- SOUTHERN NEW ENGLAND IN CT CITY SKY/WX TMP DP RH WIND PRES REMARKS BRADLEY INTL LGT SNOW 27 22 81 S7 30.32F VSB 1 WCI 19 HARTFORD LGT SNOW 26 23 88 S6 30.35F VSB 3/4 WCI 19 DANBURY LGT SNOW 24 19 81 SW3 30.33F VSB 3/4 WTRBRY/OXFORD SNOW 23 16 74 S5 30.31F VSB 1/2 WCI 17 BRIDGEPORT LGT SNOW 26 26 100 CALM 30.36F VSB 3/4 MERIDEN SNOW 25 22 88 S3 30.35F VSB 1/2 NEW HAVEN LGT SNOW 27 24 89 CALM 30.35F VSB 3/4 CHESTER SNOW 27 27 100 S6 30.34F VSB 1/2 WCI 20 GROTON SNOW 27 27 100 SW6 30.36F VSB 1/2 WCI 20 WILLIMANTIC LGT SNOW 26 23 88 S5 30.35F VSB 3/4 WCI 20 IN RI CITY SKY/WX TMP DP RH WIND PRES REMARKS PROVIDENCE SNOW 27 25 92 S5 30.36F VSB 1/2 WCI 22 BLOCK ISLAND CLOUDY 30 27 86 SW6 30.35F VSB 3/4 WCI 24 WESTERLY SNOW 29 28 96 S3 30.37F VSB 1/2 IN MA CITY SKY/WX TMP DP RH WIND PRES REMARKS BOSTON LGT SNOW 27 23 85 S9 30.36F FOG WCI 18 WORCESTER LGT SNOW 23 20 88 S7 30.26F FOG WCI 15 WESTFIELD LGT SNOW 24 21 88 S3 30.31F FOG PROVINCETOWN CLOUDY 27 25 93 S9 30.38F WCI 17 NANTUCKET LGT SNOW 31 25 78 S8 30.39F WCI 23 $$ ANZ330-335-338-340-345-350-353-355-020000- COASTAL MARINE OBSERVATIONS STATION/POSITION TIME SKY/WX TEMP WIND PRES VSBY WAVE AIR SEA DIR/SP/G HT/PER (UTC) (F) (DEG/KT/KT) (MB) (MI) (FT/S) NY HARB ENTRANCE 2300 28 35 190/ 4/ 4 1027.7 2/ 9 4S FIRE IS NOT AVBL 20S FIRE ISLAND 2200 37 1029.6 2/ 9 23SW MTP 2300 N/A 2/ 8 HUDSON CANYON NOT AVBL EXECUTION ROCKS NOT AVBL WESTERN LI SOUND NOT AVBL CENTRAL LI SOUND NOT AVBL EASTERN LI SOUND NOT AVBL ROBBINS REEF 2300 25 CALM / 1 1026.7 $$ >>>>>>>>>>>>>>>>>>>>>>>>>>>> KEY <<<<<<<<<<<<<<<<<<<<<<<<<<< > < > SKY/WX - SKY CONDITION/PRESENT WEATHER < > TMP - TEMPERATURE IN FAHRENHEIT < > DP - DEWPOINT IN FAHRENHEIT < > RH - RELATIVE HUMIDITY IN PERCENT < > WIND - DIRECTION AND SPEED IN MPH < > PRES - MEAN SEA LEVEL PRESSURE IN INCHES OF HG < > WCI - WIND CHILL INDEX < > VSB - VISIBILITY IN MILES < > HX - HEAT INDEX < > TC - TEMPERATURE IN CELSIUS < > VRB - VARIABLE WIND DIRECTION < > < >>>>>>>>>>>>>>>>>>>>>>>>>>>> KEY <<<<<<<<<<<<<<<<<<<<<<<<<<<

USA.gov is the U.S. government's official web portal to all federal, state and local government web resources and services.